TimeCST,TemperatureF,Dew PointF,Humidity,Sea Level PressureIn,VisibilityMPH,Wind Direction,Wind SpeedMPH,Gust SpeedMPH,PrecipitationIn,Events,Conditions,WindDirDegrees,DateUTC
12:53 AM,15.1,8.1,74,30.18,10.0,North,18.4,27.6,N/A,,Overcast,360,2014-01-05 06:53:00
1:53 AM,12.9,6.1,74,30.19,10.0,North,15.0,25.3,N/A,,Overcast,360,2014-01-05 07:53:00
2:53 AM,12.0,3.9,70,30.21,10.0,North,19.6,27.6,N/A,,Overcast,350,2014-01-05 08:53:00
3:53 AM,10.9,1.9,67,30.24,10.0,North,19.6,24.2,N/A,,Overcast,350,2014-01-05 09:53:00
4:53 AM,9.0,-0.9,64,30.24,10.0,North,17.3,25.3,N/A,,Overcast,360,2014-01-05 10:53:00
5:53 AM,8.1,-2.9,61,30.28,10.0,North,13.8,25.3,N/A,,Overcast,360,2014-01-05 11:53:00
6:53 AM,7.0,-4.0,61,30.31,10.0,North,15.0,25.3,N/A,,Overcast,350,2014-01-05 12:53:00
7:53 AM,7.0,-4.0,61,30.33,10.0,North,17.3,-,N/A,,Overcast,350,2014-01-05 13:53:00
8:53 AM,6.1,-4.0,63,30.35,10.0,North,17.3,23.0,N/A,,Overcast,350,2014-01-05 14:53:00
9:53 AM,6.1,-5.1,60,30.38,10.0,North,17.3,23.0,N/A,,Overcast,350,2014-01-05 15:53:00
10:53 AM,6.1,-9.9,48,30.40,10.0,North,19.6,35.7,N/A,,Overcast,350,2014-01-05 16:53:00
11:53 AM,8.1,-7.1,50,30.40,10.0,North,25.3,36.8,N/A,,Overcast,360,2014-01-05 17:53:00
12:53 PM,8.1,-7.1,50,30.40,10.0,NNW,19.6,28.8,N/A,,Overcast,340,2014-01-05 18:53:00
1:53 PM,10.0,-5.1,51,30.41,10.0,North,17.3,32.2,N/A,,Partly Cloudy,350,2014-01-05 19:53:00
2:53 PM,10.0,-4.0,53,30.45,10.0,North,16.1,25.3,N/A,,Scattered Clouds,350,2014-01-05 20:53:00
3:53 PM,9.0,-5.1,53,30.48,10.0,North,16.1,23.0,N/A,,Mostly Cloudy,350,2014-01-05 21:53:00
4:53 PM,9.0,-6.0,51,30.50,10.0,NNW,18.4,26.5,N/A,,Mostly Cloudy,340,2014-01-05 22:53:00
5:53 PM,6.1,-7.1,55,30.53,10.0,NNW,11.5,19.6,N/A,,Scattered Clouds,340,2014-01-05 23:53:00
6:53 PM,3.9,-8.0,58,30.55,10.0,NW,9.2,-,N/A,,Clear,320,2014-01-06 00:53:00
7:53 PM,3.9,-9.0,55,30.56,10.0,NNW,11.5,-,N/A,,Clear,330,2014-01-06 01:53:00
8:11 PM,3.9,-5.1,66,30.50,6.0,NNW,19.6,33.4,N/A,Snow,Blowing Snow,330,2014-01-06 02:11:00
8:44 PM,1.0,-13.0,52,30.51,10.0,NNW,20.7,34.5,0.00,,Partly Cloudy,330,2014-01-06 02:44:00
8:53 PM,-0.0,-13.0,54,30.59,10.0,NNW,18.4,31.1,0.00,,Partly Cloudy,330,2014-01-06 02:53:00
9:53 PM,-2.0,-15.0,54,30.61,10.0,NNW,17.3,24.2,N/A,,Clear,330,2014-01-06 03:53:00
10:53 PM,-4.0,-17.0,54,30.62,10.0,NNW,18.4,24.2,N/A,,Clear,330,2014-01-06 04:53:00
11:53 PM,-5.1,-18.0,54,30.61,10.0,NNW,13.8,-,N/A,,Clear,330,2014-01-06 05:53:00